Hourly Data Report for October 28, 2014

All times are specified in Local Standard Time (LST). Add 1 hour to adjust for Daylight Saving Time where and when it is observed.

PENTICTON A
BRITISH COLUMBIA

49°27'45.000" N
119°36'08.000" W
344.40 m
1126146
71889
YYF

Download Data

Hourly Data (October 2014)
Hourly Data Report for October 28, 2014
Temp Definition
°C
Dew Point Temp Definition
°C
Rel Hum Definition
%
Wind Dir Definition
10's deg

Wind Spd Definition
km/h
Visibility Definition
km
Stn Press Definition
kPa
Hmdx Definition


Wind Chill Definition


Weather Definition


TIME
00:00 Legend Double Dagger 9.5 0.4 53 19 28 24.1 97.67     LegendNANA
01:00 Legend Double Dagger 9.5 1.2 56 19 31 24.1 97.62     Mostly Cloudy
02:00 Legend Double Dagger 9.5 1.2 56 19 29 24.1 97.58     LegendNANA
03:00 Legend Double Dagger 8.3 2.6 67 19 39 19.3 97.58     Rain
04:00 Legend Double Dagger 8.3 2.6 67 19 38 19.3 97.52     Rain
05:00 Legend Double Dagger 8.9 2.5 64 18 31 24.1 97.49     LegendNANA
06:00 Legend Double Dagger 9.0 1.9 61 19 37 24.1 97.46     LegendNANA
07:00 Legend Double Dagger 8.5 2.8 67 18 27 24.1 97.45     Rain Showers
08:00 Legend Double Dagger 9.2 2.1 61 19 44 24.1 97.44     LegendNANA
09:00 Legend Double Dagger 9.4 3.0 64 18 37 24.1 97.42     LegendNANA
10:00 Legend Double Dagger 9.4 3.4 66 16 31 24.1 97.44     Mostly Cloudy
11:00 Legend Double Dagger 9.4 4.0 69 15 27 24.1 97.39     LegendNANA
12:00 Legend Double Dagger 9.7 3.5 65 17 32 24.1 97.32     Rain Showers
13:00 Legend Double Dagger 10.3 3.8 64 18 36 24.1 97.27     Mostly Cloudy
14:00 Legend Double Dagger 9.9 3.9 66 18 33 24.1 97.26     LegendNANA
15:00 Legend Double Dagger 9.7 4.1 68 17 24 24.1 97.27     LegendNANA
16:00 Legend Double Dagger 9.3 3.9 69 19 35 24.1 97.28     Mostly Cloudy
17:00 Legend Double Dagger 9.4 4.4 71 19 26 24.1 97.27     LegendNANA
18:00 Legend Double Dagger 9.6 4.8 72 19 29 24.1 97.26     LegendNANA
19:00 Legend Double Dagger 9.6 5.4 75 18 23 24.1 97.25     Cloudy
20:00 Legend Double Dagger 9.8 5.4 74 18 27 24.1 97.31     LegendNANA
21:00 Legend Double Dagger 9.8 5.4 74 17 21 24.1 97.31     LegendNANA
22:00 Legend Double Dagger 9.9 5.7 75 16 18 24.1 97.33     Cloudy
23:00 Legend Double Dagger 9.9 5.5 74 17 20 24.1 97.36     LegendNANA

Notes on Data Quality.

Legend

  • E = Estimated
  • M = Missing
  • NA = Not Available
  • ‡ = Partner data that is not subject to review by the National Climate Archives
Date modified: